Home > Time Zones > World Clock > Weather > France > Lyon > Past weeks

Flag for France Weather past 2 weeks in Lyon, France

Now
66 °F

Sunny.


Feels Like: 66 °F
Forecast: 53 / 70 °F
Wind: 24 mph from North

Location: Lyon / Bron

Current Time: May 22, 2015 at 3:07:52 PM

Latest Report: May 22, 2015 at 2:30 PM


Visibility: 10 mi

Pressure: 30.15 "Hg

Humidity: 30%

Dew point: 34 °F

Location of LyonLocation

Historic Weather in Lyon — Graph

°F

Lyon temperature yesterday

Maximum temperature yesterday: 64 °F (at 2:30 PM)
Minimum temperature yesterday: 46 °F (at 12:30 AM)
Average temperature yesterday: 55 °F

Past Weeks' High & Low Weather Summary

 TemperatureHumidityPressure
High84 °F (May 12, 4:30 PM)94% (May 10, 4:00 AM)30.36 "Hg (May 10, 4:00 AM)
Low46 °F (May 8, 5:30 AM)20% (May 12, 6:00 PM)29.80 "Hg (May 18, 6:00 PM)
Average62 °F61%30.11 "Hg
* Reported May 7 2:00 PM — May 22 2:00 PM, Lyon, Weather by CustomWeather, © 2015

Note: Actual official high and low records may vary slightly from our data, if they occured in-between our weather recording intervals... More about our weather records

Advertising

Lyon weather history for previous 24 hours

 ConditionsComfort  
Time TempWeatherWind HumidityBarometerVisibility
2:00 PM
Fri, May 22
66 °FPassing clouds.21 mph28%30.15 "HgN/A
1:30 PM66 °FPassing clouds.21 mph28%30.15 "HgN/A
1:00 PM64 °FSunny.22 mph32%30.18 "Hg10 mi
12:30 PM64 °FPassing clouds.22 mph32%30.18 "HgN/A
12:00 PM64 °FPassing clouds.24 mph32%30.18 "HgN/A
11:30 AM63 °FSunny.21 mph34%30.21 "Hg10 mi
11:00 AM63 °FSunny.24 mph34%30.21 "Hg10 mi
10:30 AM61 °FPassing clouds.23 mph39%30.21 "HgN/A
10:00 AM59 °FSunny.24 mph45%30.21 "Hg10 mi
9:30 AM57 °FPassing clouds.20 mph51%30.21 "HgN/A
9:00 AM55 °FPassing clouds.18 mph55%30.21 "HgN/A
8:30 AM54 °FSunny.15 mph58%30.21 "Hg10 mi
8:00 AM52 °FSunny.18 mph62%30.21 "Hg10 mi
7:30 AM50 °FSunny.15 mph67%30.24 "Hg10 mi
7:00 AM50 °FClear.14 mph67%30.24 "Hg10 mi
6:30 AM48 °FClear.12 mph71%30.24 "Hg10 mi
6:00 AM48 °FClear.15 mph71%30.21 "Hg10 mi
5:30 AM50 °FCool.10 mph67%30.24 "HgN/A
5:00 AM50 °FCool.12 mph67%30.24 "HgN/A
4:30 AM50 °FCool.9 mph62%30.24 "HgN/A
4:00 AM50 °FCool.10 mph62%30.24 "HgN/A
3:30 AM52 °FCool.10 mph58%30.24 "HgN/A
3:00 AM52 °FCool.9 mph58%30.24 "HgN/A
2:30 AM54 °FCool.13 mph54%30.24 "HgN/A
2:00 AM54 °FClear.12 mph54%30.27 "Hg10 mi
1:30 AM54 °FPassing clouds.12 mph54%30.27 "HgN/A
1:00 AM54 °FPassing clouds.12 mph54%30.27 "HgN/A
12:30 AM55 °FClear.13 mph51%30.27 "Hg10 mi
12:00 AM55 °FPassing clouds.10 mph51%30.27 "HgN/A
11:30 PM
Thu, May 21
55 °FPassing clouds.13 mph51%30.27 "HgN/A
11:00 PM57 °FClear.13 mph48%30.27 "Hg10 mi
10:30 PM57 °FClear.14 mph48%30.27 "Hg10 mi
10:00 PM59 °FSunny.12 mph45%30.24 "Hg10 mi
9:30 PM59 °FPassing clouds.14 mph42%30.24 "HgN/A
9:00 PM61 °FSunny.15 mph39%30.24 "Hg10 mi
8:30 PM61 °FSunny.15 mph39%30.24 "Hg10 mi
8:00 PM63 °FSunny.17 mph37%30.21 "Hg10 mi
7:30 PM63 °FSunny.22 mph37%30.21 "Hg10 mi
7:00 PM63 °FSunny.22 mph32%30.21 "Hg10 mi
6:30 PM64 °FSunny.23 mph34%30.21 "Hg10 mi
6:00 PM64 °FSunny.22 mph34%30.21 "Hg10 mi
5:30 PM64 °FPassing clouds.22 mph37%30.21 "HgN/A
5:00 PM64 °FPassing clouds.25 mph30%30.21 "HgN/A
4:30 PM64 °FSunny.20 mph30%30.21 "Hg10 mi
4:00 PM63 °FPassing clouds.23 mph34%30.21 "HgN/A
3:30 PM63 °FPartly sunny.20 mph34%30.21 "HgN/A
3:00 PM61 °FPassing clouds.22 mph39%30.21 "HgN/A
Weather by CustomWeather, © 2015

See weather overviewHow to use our weather pages